Waarnemingen

Advertentie
Mijn weer
Orense, Spanje (8048): temperatuur & dauwpunt: 15.02.2019 19:00:00 - 21.02.2019 19:00:00 (CET)Orense, Spanje (8048): windsnelheid: 15.02.2019 19:00:00 - 21.02.2019 19:00:00 (CET)Orense, Spanje (8048): windrichting: 15.02.2019 19:00:00 - 21.02.2019 19:00:00 (CET)Orense, Spanje (8048): luchtdruk: 15.02.2019 19:00:00 - 21.02.2019 19:00:00 (CET)Orense, Spanje (8048): zicht: 15.02.2019 19:00:00 - 21.02.2019 19:00:00 (CET)Orense, Spanje (8048): neerslag: 15.02.2019 19:00:00 - 21.02.2019 19:00:00 (CET)
Datum & Tijd tt [°C] td [°C] ff [km/u] ff [kn] dd ppp [hPa] vv [km] rr [mm]
21.02.2019 19:00:00 17,7 4,6 5 3 ZO 1024,1 20 -
21.02.2019 18:00:00 18,7 4,5 9 5 ZZO 1023,2 20 0,0
21.02.2019 17:00:00 19,3 4,6 15 8 ZZO 1022,9 20 0,0
21.02.2019 16:00:00 20,2 4,6 18 10 ZZO 1022,8 20 -
21.02.2019 15:00:00 18,9 4,3 16 9 ZO 1023,3 20 0,0
21.02.2019 14:00:00 18,8 5,6 16 9 ZZO 1023,6 20 0,0
21.02.2019 13:00:00 16,5 6,3 9 5 Z 1024,1 20 -
21.02.2019 12:00:00 9,1 7,0 2 1 ZO 1024,7 12 0,0
21.02.2019 11:00:00 5,7 5,3 4 2 Z 1025,3 7 0,0
21.02.2019 10:00:00 3,7 3,6 4 2 ZW 1025,6 2,0 -
21.02.2019 09:00:00 2,6 2,3 2 1 OZO 1025,4 1,0 0,0
21.02.2019 08:00:00 2,3 1,9 2 1 OZO 1025,0 1,4 0,0
21.02.2019 07:00:00 2,0 1,3 0 0 N 1024,9 11 -
21.02.2019 06:00:00 2,1 1,4 0 0 N 1024,5 11 0,0
21.02.2019 05:00:00 2,4 1,5 0 0 N 1024,4 14 0,0
21.02.2019 04:00:00 2,9 2,0 0 0 N 1024,5 12 -
21.02.2019 03:00:00 3,4 2,4 2 1 ZW 1024,7 9 0,0
21.02.2019 02:00:00 4,1 3,1 2 1 ZO 1024,7 10 0,0
21.02.2019 01:00:00 4,6 3,1 2 1 W 1024,3 12 -
21.02.2019 00:00:00 5,5 3,8 2 1 W 1023,9 12 0,0
20.02.2019 23:00:00 6,6 4,6 2 1 WZW 1023,9 11 0,0
20.02.2019 22:00:00 7,8 5,1 2 1 WZW 1023,7 15 -
20.02.2019 21:00:00 9,4 5,6 2 1 ZZW 1023,0 16 0,0
20.02.2019 20:00:00 11,8 6,3 2 1 OZO 1022,3 15 0,0
20.02.2019 19:00:00 14,9 4,8 4 2 NNO 1021,4 20 -
20.02.2019 18:00:00 15,8 6,0 4 2 NW 1021,0 20 0,0
20.02.2019 17:00:00 15,8 5,7 4 2 N 1020,8 20 0,0
20.02.2019 16:00:00 14,8 5,3 5 3 NO 1020,8 20 -
20.02.2019 15:00:00 13,0 5,4 4 2 NNO 1021,3 19 0,0
20.02.2019 14:00:00 10,1 5,5 4 2 N 1022,4 16 0,0
20.02.2019 13:00:00 7,8 4,2 4 2 ZZO 1023,3 14 -
20.02.2019 12:00:00 4,7 3,4 4 2 Z 1023,7 9 0,0
20.02.2019 11:00:00 3,1 2,7 2 1 Z 1023,5 - 0,0
20.02.2019 10:00:00 2,2 1,9 4 2 ZZO 1023,1 3,7 -
20.02.2019 09:00:00 1,6 1,0 4 2 ZZO 1023,0 1,1 0,0
20.02.2019 08:00:00 1,6 1,0 5 3 Z 1022,7 7 0,0
20.02.2019 07:00:00 2,1 1,7 4 2 ZZO 1022,7 6 -
20.02.2019 06:00:00 2,6 2,2 5 3 ZO 1022,5 0,6 0,0
20.02.2019 05:00:00 2,6 2,2 4 2 ZO 1021,8 2,0 0,0
20.02.2019 04:00:00 2,5 1,9 2 1 Z 1021,9 7 -
20.02.2019 03:00:00 1,7 1,0 4 2 W 1021,9 10 0,0
20.02.2019 02:00:00 1,3 0,1 2 1 WZW 1022,0 12 0,0
20.02.2019 01:00:00 2,0 0,8 2 1 W 1021,8 10 -
20.02.2019 00:00:00 3,0 1,5 4 2 W 1021,6 12 0,0
19.02.2019 23:00:00 3,9 2,3 2 1 ZZW 1021,5 12 0,0
19.02.2019 22:00:00 5,1 3,3 2 1 WZW 1021,0 8 -
19.02.2019 21:00:00 6,5 4,0 2 1 W 1020,4 11 0,0
19.02.2019 20:00:00 8,8 5,2 2 1 ZW 1019,8 15 0,0
19.02.2019 19:00:00 11,8 5,4 4 2 WNW 1018,8 20 -
19.02.2019 18:00:00 13,0 5,4 2 1 Z 1018,4 20 0,0
19.02.2019 17:00:00 12,3 5,5 5 3 ZW 1018,9 20 0,0
19.02.2019 16:00:00 11,5 5,4 4 2 WZW 1019,3 20 -
19.02.2019 15:00:00 9,7 4,3 8 4 W 1020,3 18 0,0
19.02.2019 14:00:00 7,5 3,5 5 3 W 1021,3 20 0,0
19.02.2019 13:00:00 6,4 2,7 4 2 NW 1022,4 20 -
19.02.2019 12:00:00 5,6 2,8 4 2 NNW 1022,7 19 0,0
19.02.2019 11:00:00 4,9 2,8 5 3 N 1023,1 19 0,0
19.02.2019 10:00:00 4,5 2,5 4 2 NO 1023,0 18 -
19.02.2019 09:00:00 4,0 2,5 4 2 NO 1022,8 20 0,0
19.02.2019 08:00:00 3,5 3,1 4 2 ZZW 1022,6 10 0,0
19.02.2019 07:00:00 3,5 3,1 4 2 ZZW 1022,7 6 -
19.02.2019 06:00:00 3,6 3,2 4 2 ZZW 1022,4 3,1 0,0
19.02.2019 05:00:00 3,7 3,3 4 2 ZZW 1022,4 1,0 0,0
19.02.2019 04:00:00 3,6 3,0 4 2 WZW 1022,8 3,4 -
19.02.2019 03:00:00 3,2 2,5 2 1 WZW 1022,9 18 0,0
19.02.2019 02:00:00 3,0 2,1 4 2 W 1023,0 15 0,0
19.02.2019 01:00:00 3,7 2,5 4 2 W 1022,8 11 -
19.02.2019 00:00:00 5,2 3,8 2 1 WZW 1022,9 11 0,0
18.02.2019 23:00:00 6,6 4,9 2 1 ZZO 1022,7 15 0,0
18.02.2019 22:00:00 8,8 6,4 2 1 NO 1021,8 20 -
18.02.2019 21:00:00 9,5 6,4 2 1 NO 1021,2 20 0,0
18.02.2019 20:00:00 9,7 6,4 2 1 WZW 1021,0 20 0,0
18.02.2019 19:00:00 10,1 6,2 4 2 NNO 1020,1 20 -
18.02.2019 18:00:00 10,4 6,2 4 2 NO 1019,9 20 0,0
18.02.2019 17:00:00 10,7 5,7 4 2 NO 1020,1 20 0,0
18.02.2019 16:00:00 10,7 6,3 4 2 NNO 1019,8 20 -
18.02.2019 15:00:00 10,2 6,7 8 4 ONO 1020,0 20 0,0
18.02.2019 14:00:00 9,5 7,8 4 2 ZW 1020,2 20 0,0
18.02.2019 13:00:00 9,2 8,0 2 1 ZZO 1020,2 18 -
18.02.2019 12:00:00 9,0 7,9 4 2 ZZO 1019,9 6 0,2
18.02.2019 11:00:00 8,9 8,0 2 1 Z 1019,4 11 0,4
18.02.2019 10:00:00 8,6 7,8 2 1 ZZW 1019,0 7 -
18.02.2019 09:00:00 8,6 7,7 4 2 ZO 1018,3 8 0,8
18.02.2019 08:00:00 8,7 7,6 2 1 ZO 1017,5 3,8 1,0
18.02.2019 07:00:00 9,0 7,4 2 1 ZZW 1017,2 7 -
18.02.2019 06:00:00 9,1 7,5 4 2 N 1016,8 12 1,0
18.02.2019 05:00:00 9,4 7,2 4 2 W 1016,6 11 0,2
18.02.2019 04:00:00 9,4 7,2 2 1 NNO 1016,8 20 -
18.02.2019 03:00:00 9,6 7,2 4 2 W 1017,1 20 0,0
18.02.2019 02:00:00 10,0 7,2 4 2 NNW 1017,1 20 0,0
18.02.2019 01:00:00 10,3 7,7 5 3 NNO 1017,1 20 -
18.02.2019 00:00:00 11,0 8,7 2 1 NNO 1017,2 19 0,0
17.02.2019 23:00:00 11,4 8,8 4 2 OZO 1017,4 6 0,4
17.02.2019 22:00:00 12,5 7,4 2 1 ZZO 1016,9 11 -
17.02.2019 21:00:00 13,6 6,9 2 1 O 1017,1 17 0,0
17.02.2019 20:00:00 14,4 6,7 4 2 WNW 1016,9 20 0,0
17.02.2019 19:00:00 14,8 7,1 2 1 NW 1016,3 20 -
17.02.2019 18:00:00 15,8 6,8 5 3 W 1016,1 20 0,0
17.02.2019 17:00:00 16,5 6,3 8 4 W 1016,1 20 0,0
17.02.2019 16:00:00 18,3 6,2 11 6 W 1016,2 20 -
17.02.2019 15:00:00 19,8 4,7 18 10 ZZW 1016,7 20 0,0
17.02.2019 14:00:00 20,2 5,4 16 9 ZW 1017,4 20 0,0
17.02.2019 13:00:00 15,5 6,5 4 2 NNO 1018,8 20 -
17.02.2019 12:00:00 11,7 5,3 8 4 NW 1019,6 18 0,0
17.02.2019 11:00:00 8,2 5,0 4 2 W 1020,4 11 0,0
17.02.2019 10:00:00 5,0 4,1 4 2 ZZW 1020,9 15 -
17.02.2019 09:00:00 4,1 2,9 2 1 ZO - 13 0,0
17.02.2019 08:00:00 4,5 3,0 2 1 WNW 1020,4 16 0,0
17.02.2019 07:00:00 4,8 3,1 2 1 WZW 1020,5 16 -
17.02.2019 06:00:00 5,0 3,2 2 1 NO 1020,6 17 0,0
17.02.2019 05:00:00 5,2 3,0 2 1 W 1020,7 19 0,0
17.02.2019 04:00:00 5,4 3,1 2 1 O 1020,9 17 -
17.02.2019 03:00:00 5,8 3,0 2 1 W 1021,0 19 0,0
17.02.2019 02:00:00 6,4 2,8 2 1 W 1021,0 19 0,0
17.02.2019 01:00:00 7,2 3,4 2 1 Z 1021,0 17 -
17.02.2019 00:00:00 8,3 3,9 2 1 ZZW 1021,4 18 0,0
16.02.2019 23:00:00 9,4 4,6 2 1 OZO 1021,6 18 0,0
16.02.2019 22:00:00 11,3 5,0 2 1 ZO 1021,0 18 -
16.02.2019 21:00:00 14,7 5,5 5 3 OZO 1020,2 19 0,0
16.02.2019 20:00:00 17,4 3,6 5 3 ZO 1019,5 20 0,0
16.02.2019 19:00:00 19,7 2,1 8 4 Z 1018,6 20 -
16.02.2019 18:00:00 22,0 1,1 9 5 ZO 1018,0 20 0,0
16.02.2019 17:00:00 23,3 1,0 9 5 ZZO 1018,1 20 0,0
16.02.2019 16:00:00 23,4 1,7 8 4 ZO 1018,6 19 -
16.02.2019 15:00:00 19,6 4,9 5 3 NW 1019,8 20 0,0
16.02.2019 14:00:00 16,0 6,7 4 2 WZW 1021,6 20 0,0
16.02.2019 13:00:00 12,5 6,1 2 1 ZW 1023,4 19 -
16.02.2019 12:00:00 9,2 4,6 4 2 ZZO 1024,7 18 0,0
16.02.2019 11:00:00 6,1 3,9 4 2 Z 1025,5 16 0,0
16.02.2019 10:00:00 1,9 1,2 2 1 ZW 1026,3 15 -
16.02.2019 09:00:00 1,2 0,3 2 1 W 1026,3 14 0,0
16.02.2019 08:00:00 1,3 0,1 0 0 N 1026,1 20 0,0
16.02.2019 07:00:00 1,9 0,9 2 1 W 1025,9 16 -
16.02.2019 06:00:00 2,5 1,2 2 1 W 1025,7 19 0,0
16.02.2019 05:00:00 3,0 1,7 0 0 N 1025,8 18 0,0
16.02.2019 04:00:00 3,7 2,2 0 0 N 1026,1 19 -
16.02.2019 03:00:00 4,3 2,6 4 2 W 1026,4 16 0,0
16.02.2019 02:00:00 5,0 3,0 4 2 W 1026,6 18 0,0
16.02.2019 01:00:00 5,8 3,5 4 2 W 1026,6 17 -
16.02.2019 00:00:00 6,8 4,3 0 0 N 1026,6 15 0,0
15.02.2019 23:00:00 8,2 5,3 0 0 N 1026,1 12 0,0
15.02.2019 22:00:00 9,7 5,9 0 0 N 1025,7 11 -
15.02.2019 21:00:00 11,5 6,2 2 1 OZO 1024,9 15 0,0
15.02.2019 20:00:00 13,9 6,5 2 1 O 1024,6 19 0,0
15.02.2019 19:00:00 17,1 7,7 4 2 ONO 1023,9 18 -

tt = temperatuur
td = dauwpunt
ff = windsnelheid
dd = windrichting
ppp = luchtdruk
vv = zicht
rr = neerslag

Weerstations in de omgeving